Skip Page Navigation
NASA JPL Caltech
NASA Logo - Jet Propulsion Laboratory + View the NASA Portal
+ Center for Near-Earth Object Studies
JPL Home Earth Solar System Stars & Galaxies Technology
JPL Solar System Dynamics
BODIES ORBITS EPHEMERIDES TOOLS PHYSICAL DATA DISCOVERY FAQ SITE MAP
IMPORTANT: The SSD Announcement email list is now available. Major changes are coming in the near future, including possible hostname and/or URL changes. To be notified of such changes, subscribe to this email list.

Please visit this page for more details.


JPL Small-Body Database Browser
Search: [ help ]  
12167 Olivermuller (4306 T-2)
Classification: Main-belt Asteroid          SPK-ID: 2012167
Ephemeris | Orbit Diagram | Orbital Elements | Mission Design | Physical Parameters | Discovery Circumstances ]

[ show orbit diagram ]
Orbital Elements at Epoch 2458600.5 (2019-Apr-27.0) TDB
Reference: JPL 24 (heliocentric ecliptic J2000)
 Element Value Uncertainty (1-sigma)   Units 
e .2158340692617686 3.8558e-08  
a 2.389604031291321 1.0677e-08 au
q 1.873846069293389 9.3483e-08 au
i 9.600914591069554 4.4419e-06 deg
node 18.34057850640721 2.5466e-05 deg
peri 296.79073859 2.7349e-05 deg
M 156.4158404010254 1.2924e-05 deg
tp 2458014.273330791247
(2017-Sep-17.77333079)
4.6495e-05 TDB
period 1349.234197598362
3.69
9.0429e-06
2.476e-08
d
yr
n .2668180221349268 1.7883e-09 deg/d
Q 2.905361993289254 1.2982e-08 au
  Orbit Determination Parameters
   # obs. used (total)      1335  
   data-arc span      16593 days (45.43 yr)  
   first obs. used      1973-09-29  
   last obs. used      2019-03-05  
   planetary ephem.      DE431  
   SB-pert. ephem.      SB431-N16  
   condition code      0  
   norm. resid. RMS      .52825  
   source      ORB  
   producer      Otto Matic  
   solution date      2019-Jul-12 19:16:04  

Additional Information
 Earth MOID = .883375 au 
 Jupiter MOID = 2.46471 au 
 T_jup = 3.482 
[ show covariance matrix ]

Ephemeris | Orbit Diagram | Orbital Elements | Mission Design | Physical Parameters | Discovery Circumstances ]

Physical Parameter Table
Parameter Symbol Value Units Sigma Reference Notes
absolute magnitude H 14.2   n/a MPO365396  
diameter diameter 3.967 km 0.060 urn:nasa:pds:neowise_diameters_albedos::2.0[mainbelt] (http://adsabs.harvard.edu/abs/2011ApJ...741...68M)  
geometric albedo albedo 0.282   0.041 urn:nasa:pds:neowise_diameters_albedos::2.0[mainbelt] (http://adsabs.harvard.edu/abs/2011ApJ...741...68M)  

12167 Olivermüller           Discovered 1973 Sept. 29 by C. J. van Houten and I. van Houten-Groeneveld on Palomar Schmidt plates taken by T. Gehrels.
Oliver Müller (b. 1971), a cardiologist in the stroke department of the Heidelberg University Hospital, convinced the second discoverer in a personal dialogue that her life was still valuable and that the coronary catheterization was necessary.
NOTE: some special characters may not display properly (any characters within {} are an attempt to place the proper accent above a character)
Reference: 20081113/MPCPages.arcLast Updated: 2008-11-17

Alternate Designations
 4306 T-2 = 1994 CD15 
Ephemeris | Orbit Diagram | Orbital Elements | Mission Design | Physical Parameters | Discovery Circumstances ]
ABOUT SSD CREDITS/AWARDS PRIVACY/COPYRIGHT GLOSSARY LINKS
FirstGov 2020-Jan-22 02:27 UT
(server date/time)  
NASA Home Page
Site Manager:   Ryan S. Park
Webmaster  Alan B. Chamberlin